Location: Janeiro
(34.9957°N, 76.7652°W)
Time: 09:44:24
(UTC+00:00)

Delta 2 Rocket - Pass Details

Date: 14 December 2019
Orbit: 416 x 809 km, 35.6° (Epoch: 20 January)

Event Time Altitude Azimuth Distance (km) Brightness Sun altitude
Rises 23:25:43 0° 271° (W) 3,182 8.6 -17.7°
Reaches altitude 10° 23:28:18 10° 272° (W) 2,205 7.5 -18.2°
Maximum altitude 23:33:30 82° 359° (N) 672 3.6 -19.3°
Enters shadow 23:34:59 44° 82° (E) 886 3.8 -19.6°
